Hourly Weather Roundup
Issued by NWS Central Illinois

Home | Current Version | Previous Version | Text Only | Print | Product List | Glossary On
Versions: 1 2 3 4 5 6 7 8 9 10 11 12 13 14 15 16 17 18 19 20 21 22 23 24 25 26 27 28 29 30 31 32 33 34 35 36 37 38 39 40 41 42 43 44 45 46 47 48 49 50
000
NZUS43 KILX 210710
HWRILX

Area Weather Roundup
National Weather Service Lincoln IL
100 AM CST SUN JAN 21 2018

NOTE:  "FAIR" indicates few or no clouds below 12,000 feet, with
       no sigificant weather and/or obstructions to visibility.


CITY           SKY/WX    TMP DP  RH WIND       PRES   REMARKS
Bloomington    LGT RAIN  37  37 100 S10       29.99R VSB 1/4 WCI  30
Champaign      FOG       39  39 100 S8        30.00F VSB 1/2 WCI  33
Danville       FOG       38  38  99 SE5       29.99F VSB 1/2 WCI  35
Decatur        CLOUDY    40  40 100 S9        29.99S FOG     WCI  34
Effingham      CLOUDY    40  40 100 E5        30.03S FOG
Flora          CLOUDY    41  40  94 SE3       30.03S
Galesburg      CLOUDY    42  39  89 CALM      29.95S
Jacksonville   PTCLDY    30  29  95 CALM      29.95S FOG
Lacon          CLOUDY    41  37  88 S5        29.97R
Lawrenceville  CLOUDY    39  31  72 SE5       30.05F
Litchfield     CLOUDY    42  42  99 S9        29.97F
$$


CITY           SKY/WX    TMP DP  RH WIND       PRES   REMARKS
Lincoln        FOG       37  37 100 SE5       29.98S VSB 1/2 WCI  33
Macomb         CLOUDY    40  37  89 SE5       29.96F
Mattoon        CLOUDY    41  41 100 S7        30.00S FOG
Mt Carmel AP   CLOUDY    42  40  91 SE3       30.04F
Olney-Noble AP CLOUDY    42  40  93 SE5       30.03F
Paris AP       FOG       37  37 100 SE7       30.03F VSB 3/4 WCI  32
Peoria         CLOUDY    41  38  89 S5        29.97S
Pontiac        CLOUDY    39  39  98 SE5       29.99S
Rantoul        FOG       40  39  99 SE5       30.00F VSB 1/2
Robinson       CLOUDY    41  39  92 S5        30.05F
Springfield    CLOUDY    40  39  97 S7        29.97S
Taylorville    MOCLDY    41  41  99 S9        29.98S FOG
$$

...REGIONAL REPORTS...


CITY           SKY/WX    TMP DP  RH WIND       PRES   REMARKS
Chicago O`Hare CLOUDY    39  35  86 S3        29.97F
Kankakee       CLOUDY   N/A N/A N/A CALM      30.01F
Moline         CLOUDY    40  37  89 CALM      29.93S
Mount Sterling CLOUDY    39  37  91 SE7       29.93S WCI  34
Mount Vernon   CLOUDY    46  44  93 S5        30.01F
Pittsfield     CLEAR     37  37  97 SE3       29.94F
Quincy         CLEAR     36  35  96 SE8       29.92S WCI  30
Rockford       CLOUDY    36  34  92 SE3       29.98S
$$


CITY           SKY/WX    TMP DP  RH WIND       PRES   REMARKS
Burlington     CLOUDY    42  38  85 SE3       29.92F
Cedar Rapids   CLOUDY    38  36  92 E6        29.91F FOG     WCI  33
Des Moines     CLOUDY    40  36  86 E8        29.88F WCI  34
Kirksville     CLOUDY    42  42 100 SE7       29.89F
Ottumwa        CLOUDY    41  37  86 E6        29.89F
St Louis       PTCLDY    37  36  96 SE9       29.96F WCI  30
$$


CITY           SKY/WX    TMP DP  RH WIND       PRES   REMARKS
Terre Haute    CLOUDY    38  37  97 E3        30.04S FOG
Evansville     MOCLDY    45  42  89 S7        30.06F
Indianapolis   FOG       39  39 100 SE3       30.06F VSB 1/4
Lafayette      FOG       39  39 100 S3        30.03F VSB 3/4
Madison        FAIR      29  27  92 CALM      29.96S FOG
Milwaukee      FAIR      35  33  92 SW3       29.97S FOG
$$






USA.gov is the U.S. government's official web portal to all federal, state and local government web resources and services.